Location: Bacea
(45.9500°N, 22.6667°E)
Time: 00:16:59
(UTC+00:00)

Meteor 1-24 Rocket - Pass Details

Date: 16 October 2021
Orbit: 790 x 927 km, 81.3° (Epoch: 26 November)

Event Time Altitude Azimuth Distance (km) Brightness Sun altitude
Rises 15:58:47 0° 348° (NNW) 3,420 6.9 -3.8°
Reaches altitude 10° 16:01:11 10° 348° (NNW) 2,501 6.2 -4.2°
Maximum altitude 16:06:53 84° 262° (W) 892 4.0 -5.2°
Drops below altitude 10° 16:12:46 10° 174° (S) 2,572 6.2 -6.2°
Sets 16:15:15 0° 174° (S) 3,524 6.9 -6.6°
